Погода в Новоаширове

Россия / Оренбургская область     53°20′01″N   53°18′50″E
темп.,
°C
ветер,
м/с
пор.,
м/с
влажн.,
%
обл.,
%
осадки,
мм/ч
давл.,
гПа
погр.,
м
24 сентября, пт
пт2423:00+15юв71627100 0.0 1020579
02:00+13юв81635100 0.0 1020830
05:00+11юв91656100 0.6 1020625
08:00+10юв91756100 0.4 1020661
11:00+13юв91540100 0.4 1020886
14:00+13юв81236100 0.0 1020758
17:00+12юв71336100 0.0 1020782
20:00+12вюв71537100 0.0 1018676
25 сентября, сб
сб2523:00+14юв81628100 0.0 1016796
02:00+13юв81528100 0.0 1014666
05:00+12юв61330100 0.0 1013604
08:00+11юв51134100 0.0 1012446
11:00+10юв61255100 0.5 1012595
14:00+10вюв2463100 0.1 1011227
17:00+14ююв2741100 0.1 1010542
20:00+10вюв497198 0.0 1010203
26 сентября, вс
вс2623:00+9в357851 0.0 101083
02:00+8с1172100 0.0 100910
05:00+8сз2271100 0.0 100810
08:00+8сз2274100 0.0 100827
11:00+10з1264100 0.0 1008193
14:00+12сз2260100 0.2 1008562
17:00+14зсз2253100 0.2 10081002
20:00+10ссв117076 0.0 100810
27 сентября, пн
пн2723:00+8всв227979 0.0 100810
02:00+10в3776100 0.0 1008220
05:00+7вюв61179100 0.2 1009380
08:00+8в61170100 0.1 1009584
11:00+8в81069100 0.1 1011757
14:00+9в7954100 0.1 10121222
17:00+7в696798 0.1 10151129
20:00+6всв6962100 0.0 1017964
28 сентября, вт
вт2823:00+5св61263100 0.0 1018586
02:00+4св612613 0.0 1019452
05:00+2св512655 0.0 1021348
08:00+1св411723 0.0 1023307
11:00+6св56495 0.0 1024760
14:00+9св45375 0.0 10241283
17:00+10ссв453465 0.0 10241443
20:00+7с3746100 0.0 1025226